Time,TemperatureF,DewpointF,PressureIn,WindDirection,WindDirectionDegrees,WindSpeedMPH,WindSpeedGustMPH,Humidity,HourlyPrecipIn,Conditions,Clouds,dailyrainin,SoftwareType,DateUTC
2013-01-13 00:00:00,53.6,53.0,30.10,NE,39,0.0,0.0,98,0.00,,,0.02,Wunderground v.1.15,2013-01-13 05:00:00,
2013-01-13 00:05:00,53.5,52.9,30.10,NE,39,0.0,0.0,98,0.00,,,0.00,Wunderground v.1.15,2013-01-13 05:05:00,
2013-01-13 00:10:00,53.5,52.9,30.10,NE,39,0.0,0.0,98,0.00,,,0.00,Wunderground v.1.15,2013-01-13 05:10:00,
2013-01-13 00:15:00,53.5,52.9,30.10,NE,39,0.0,0.0,98,0.00,,,0.00,Wunderground v.1.15,2013-01-13 05:15:00,
2013-01-13 00:20:00,53.5,52.9,30.10,NE,39,0.0,0.0,98,0.00,,,0.00,Wunderground v.1.15,2013-01-13 05:20:00,
2013-01-13 00:25:00,53.5,52.9,30.10,NE,39,0.0,0.0,98,0.00,,,0.00,Wunderground v.1.15,2013-01-13 05:25:00,
2013-01-13 00:30:00,53.5,52.9,30.10,NE,39,0.0,0.0,98,0.00,,,0.00,Wunderground v.1.15,2013-01-13 05:30:00,
2013-01-13 00:35:00,53.5,52.9,30.10,NE,39,0.0,0.0,98,0.00,,,0.00,Wunderground v.1.15,2013-01-13 05:35:00,
2013-01-13 00:40:00,53.5,52.9,30.09,NE,39,0.0,0.0,98,0.00,,,0.00,Wunderground v.1.15,2013-01-13 05:40:00,
2013-01-13 00:45:00,53.5,52.9,30.09,NE,39,0.0,0.0,98,0.00,,,0.00,Wunderground v.1.15,2013-01-13 05:45:00,
2013-01-13 00:55:00,53.5,52.9,30.10,NE,39,0.0,0.0,98,0.00,,,0.00,Wunderground v.1.15,2013-01-13 05:55:00,
2013-01-13 01:00:00,53.4,52.8,30.10,NE,39,0.0,0.0,98,0.00,,,0.00,Wunderground v.1.15,2013-01-13 06:00:00,
2013-01-13 01:05:00,53.4,52.8,30.09,NE,39,0.0,0.0,98,0.00,,,0.00,Wunderground v.1.15,2013-01-13 06:05:00,
2013-01-13 01:15:00,53.2,52.7,30.09,NE,39,0.0,0.0,98,0.00,,,0.00,Wunderground v.1.15,2013-01-13 06:15:00,
2013-01-13 01:20:00,53.2,52.7,30.09,NE,39,0.0,0.0,98,0.00,,,0.00,Wunderground v.1.15,2013-01-13 06:20:00,
2013-01-13 01:25:00,53.0,52.5,30.09,NE,39,0.0,0.0,98,0.00,,,0.00,Wunderground v.1.15,2013-01-13 06:25:00,
2013-01-13 01:30:00,53.0,52.7,30.09,NE,39,0.0,0.0,99,0.00,,,0.00,Wunderground v.1.15,2013-01-13 06:30:00,
2013-01-13 01:35:00,52.9,52.4,30.09,NE,39,0.0,0.0,98,0.00,,,0.00,Wunderground v.1.15,2013-01-13 06:35:00,
2013-01-13 01:40:00,52.8,52.3,30.09,NE,39,0.0,0.0,98,0.00,,,0.00,Wunderground v.1.15,2013-01-13 06:40:00,
2013-01-13 01:50:00,53.0,52.7,30.09,NE,39,0.0,0.0,99,0.00,,,0.00,Wunderground v.1.15,2013-01-13 06:50:00,
2013-01-13 01:55:00,53.0,52.7,30.09,NE,39,0.0,0.0,99,0.00,,,0.00,Wunderground v.1.15,2013-01-13 06:55:00,
2013-01-13 02:00:00,53.1,52.8,30.09,NE,39,0.0,0.0,99,0.00,,,0.00,Wunderground v.1.15,2013-01-13 07:00:00,
2013-01-13 02:05:00,53.0,52.7,30.10,NE,39,0.0,0.0,99,0.00,,,0.00,Wunderground v.1.15,2013-01-13 07:05:00,
2013-01-13 02:10:00,53.0,52.7,30.10,NE,39,0.0,0.0,99,0.00,,,0.00,Wunderground v.1.15,2013-01-13 07:10:00,
2013-01-13 02:15:00,52.9,52.6,30.09,NE,39,0.0,0.0,99,0.00,,,0.00,Wunderground v.1.15,2013-01-13 07:15:00,
2013-01-13 02:25:00,52.8,52.5,30.09,NE,39,0.0,0.0,99,0.00,,,0.00,Wunderground v.1.15,2013-01-13 07:25:00,
2013-01-13 02:30:00,52.9,52.6,30.09,NE,39,0.0,0.0,99,0.00,,,0.00,Wunderground v.1.15,2013-01-13 07:30:00,
2013-01-13 02:35:00,52.9,52.6,30.09,NE,38,0.0,0.0,99,0.00,,,0.00,Wunderground v.1.15,2013-01-13 07:35:00,
2013-01-13 02:40:00,52.8,52.5,30.09,NE,38,0.0,0.0,99,0.00,,,0.00,Wunderground v.1.15,2013-01-13 07:40:00,
2013-01-13 02:45:00,53.2,52.9,30.08,NE,38,0.0,0.0,99,0.00,,,0.00,Wunderground v.1.15,2013-01-13 07:45:00,
2013-01-13 02:50:00,53.3,53.0,30.09,NE,38,0.0,0.0,99,0.00,,,0.00,Wunderground v.1.15,2013-01-13 07:50:00,
2013-01-13 02:55:00,53.6,53.3,30.09,NE,36,0.0,0.0,99,0.00,,,0.00,Wunderground v.1.15,2013-01-13 07:55:00,
2013-01-13 03:00:00,53.6,53.3,30.08,ENE,77,0.0,0.0,99,0.00,,,0.00,Wunderground v.1.15,2013-01-13 08:00:00,
2013-01-13 03:05:00,53.8,53.5,30.08,ENE,77,0.0,0.0,99,0.00,,,0.00,Wunderground v.1.15,2013-01-13 08:05:00,
2013-01-13 03:10:00,54.1,53.8,30.08,NE,44,0.0,0.0,99,0.00,,,0.00,Wunderground v.1.15,2013-01-13 08:10:00,
2013-01-13 03:15:00,54.2,53.9,30.08,NE,44,0.0,0.0,99,0.00,,,0.00,Wunderground v.1.15,2013-01-13 08:15:00,
2013-01-13 03:20:00,54.2,53.9,30.07,NE,45,0.0,1.0,99,0.00,,,0.00,Wunderground v.1.15,2013-01-13 08:20:00,
2013-01-13 03:25:00,54.5,54.2,30.08,NE,45,0.0,1.0,99,0.00,,,0.00,Wunderground v.1.15,2013-01-13 08:25:00,
2013-01-13 03:30:00,54.7,54.4,30.08,ENE,61,0.0,0.0,99,0.00,,,0.00,Wunderground v.1.15,2013-01-13 08:30:00,
2013-01-13 03:35:00,54.8,54.5,30.07,ENE,61,0.0,1.0,99,0.00,,,0.00,Wunderground v.1.15,2013-01-13 08:35:00,
2013-01-13 03:40:00,54.9,54.6,30.07,ENE,61,0.0,0.0,99,0.00,,,0.00,Wunderground v.1.15,2013-01-13 08:40:00,
2013-01-13 03:45:00,55.1,54.8,30.07,ENE,63,1.0,1.0,99,0.00,,,0.00,Wunderground v.1.15,2013-01-13 08:45:00,
2013-01-13 03:50:00,55.2,54.9,30.07,East,100,0.0,0.0,99,0.00,,,0.00,Wunderground v.1.15,2013-01-13 08:50:00,
2013-01-13 03:55:00,55.4,55.1,30.06,East,100,0.0,0.0,99,0.00,,,0.00,Wunderground v.1.15,2013-01-13 08:55:00,
2013-01-13 04:00:00,55.7,55.4,30.06,East,100,0.0,0.0,99,0.00,,,0.00,Wunderground v.1.15,2013-01-13 09:00:00,
2013-01-13 04:05:00,55.8,55.5,30.07,NE,44,0.0,0.0,99,0.00,,,0.00,Wunderground v.1.15,2013-01-13 09:05:00,
2013-01-13 04:15:00,56.2,55.9,30.06,NE,52,1.0,5.0,99,0.00,,,0.00,Wunderground v.1.15,2013-01-13 09:15:00,
2013-01-13 04:20:00,56.4,55.8,30.06,SW,236,1.0,1.0,98,0.00,,,0.00,Wunderground v.1.15,2013-01-13 09:20:00,
2013-01-13 04:25:00,56.7,56.1,30.07,NNE,15,1.0,1.0,98,0.00,,,0.00,Wunderground v.1.15,2013-01-13 09:25:00,
2013-01-13 04:30:00,56.9,56.1,30.06,NNE,14,0.0,0.0,97,0.00,,,0.00,Wunderground v.1.15,2013-01-13 09:30:00,
2013-01-13 04:35:00,57.1,56.3,30.06,SE,146,0.0,0.0,97,0.00,,,0.00,Wunderground v.1.15,2013-01-13 09:35:00,
2013-01-13 04:40:00,57.2,56.1,30.06,SE,138,0.0,0.0,96,0.00,,,0.00,Wunderground v.1.15,2013-01-13 09:40:00,
2013-01-13 04:45:00,57.4,56.0,30.06,SW,229,0.0,0.0,95,0.00,,,0.00,Wunderground v.1.15,2013-01-13 09:45:00,
2013-01-13 04:55:00,57.5,55.8,30.06,North,355,0.0,0.0,94,0.00,,,0.00,Wunderground v.1.15,2013-01-13 09:55:00,
2013-01-13 05:00:00,57.6,55.9,30.06,North,355,0.0,0.0,94,0.00,,,0.00,Wunderground v.1.15,2013-01-13 10:00:00,
2013-01-13 05:05:00,57.8,55.8,30.06,West,267,1.0,1.0,93,0.00,,,0.00,Wunderground v.1.15,2013-01-13 10:05:00,
2013-01-13 05:10:00,58.1,56.1,30.06,West,275,1.0,1.0,93,0.00,,,0.00,Wunderground v.1.15,2013-01-13 10:10:00,
2013-01-13 05:15:00,58.1,56.1,30.06,West,275,0.0,1.0,93,0.00,,,0.00,Wunderground v.1.15,2013-01-13 10:15:00,
2013-01-13 05:20:00,58.2,55.9,30.06,NNE,33,0.0,0.0,92,0.00,,,0.00,Wunderground v.1.15,2013-01-13 10:20:00,
2013-01-13 05:25:00,58.2,55.9,30.06,NNE,33,0.0,0.0,92,0.00,,,0.00,Wunderground v.1.15,2013-01-13 10:25:00,
2013-01-13 05:30:00,58.2,55.9,30.07,NNE,33,0.0,0.0,92,0.00,,,0.00,Wunderground v.1.15,2013-01-13 10:30:00,
2013-01-13 05:35:00,58.3,56.0,30.06,South,186,0.0,0.0,92,0.00,,,0.00,Wunderground v.1.15,2013-01-13 10:35:00,
2013-01-13 05:40:00,58.3,56.0,30.06,South,171,0.0,0.0,92,0.00,,,0.00,Wunderground v.1.15,2013-01-13 10:40:00,
2013-01-13 05:45:00,58.3,56.0,30.06,South,171,0.0,0.0,92,0.00,,,0.00,Wunderground v.1.15,2013-01-13 10:45:00,
2013-01-13 05:50:00,58.1,56.1,30.05,South,171,0.0,0.0,93,0.00,,,0.00,Wunderground v.1.15,2013-01-13 10:50:00,
2013-01-13 05:55:00,58.1,56.1,30.05,South,188,0.0,1.0,93,0.00,,,0.00,Wunderground v.1.15,2013-01-13 10:55:00,
2013-01-13 06:00:00,58.2,56.2,30.06,South,188,0.0,1.0,93,0.00,,,0.00,Wunderground v.1.15,2013-01-13 11:00:00,
2013-01-13 06:05:00,58.2,56.2,30.06,SSW,192,0.0,3.0,93,0.00,,,0.00,Wunderground v.1.15,2013-01-13 11:05:00,
2013-01-13 06:10:00,58.3,56.0,30.06,SSW,210,0.0,0.0,92,0.00,,,0.00,Wunderground v.1.15,2013-01-13 11:10:00,
2013-01-13 06:15:00,58.4,56.1,30.06,SSW,210,0.0,0.0,92,0.00,,,0.00,Wunderground v.1.15,2013-01-13 11:15:00,
2013-01-13 06:20:00,58.5,55.9,30.07,NNW,348,0.0,1.0,91,0.00,,,0.00,Wunderground v.1.15,2013-01-13 11:20:00,
2013-01-13 06:25:00,58.9,56.3,30.07,SSW,213,1.0,1.0,91,0.00,,,0.00,Wunderground v.1.15,2013-01-13 11:25:00,
2013-01-13 06:30:00,59.0,56.1,30.06,East,82,1.0,2.0,90,0.00,,,0.00,Wunderground v.1.15,2013-01-13 11:30:00,
2013-01-13 06:35:00,58.9,56.0,30.06,ENE,67,0.0,2.0,90,0.00,,,0.00,Wunderground v.1.15,2013-01-13 11:35:00,
2013-01-13 06:40:00,58.7,56.1,30.06,ENE,67,0.0,0.0,91,0.00,,,0.00,Wunderground v.1.15,2013-01-13 11:40:00,
2013-01-13 06:45:00,58.6,56.0,30.06,ENE,67,0.0,2.0,91,0.00,,,0.00,Wunderground v.1.15,2013-01-13 11:45:00,
2013-01-13 06:55:00,58.6,56.6,30.06,SSE,167,0.0,5.0,93,0.00,,,0.00,Wunderground v.1.15,2013-01-13 11:55:00,
2013-01-13 07:00:00,58.9,56.9,30.06,SSE,148,1.0,1.0,93,0.00,,,0.00,Wunderground v.1.15,2013-01-13 12:00:00,
2013-01-13 07:05:00,58.9,56.6,30.07,SSE,148,1.0,1.0,92,0.00,,,0.00,Wunderground v.1.15,2013-01-13 12:05:00,
2013-01-13 07:10:00,59.0,57.0,30.07,SSE,154,0.0,2.0,93,0.00,,,0.00,Wunderground v.1.15,2013-01-13 12:10:00,
2013-01-13 07:15:00,59.0,57.0,30.07,SSE,156,1.0,2.0,93,0.00,,,0.00,Wunderground v.1.15,2013-01-13 12:15:00,
2013-01-13 07:20:00,59.1,57.1,30.07,SW,214,1.0,1.0,93,0.00,,,0.00,Wunderground v.1.15,2013-01-13 12:20:00,
2013-01-13 07:25:00,59.2,57.2,30.07,SE,144,1.0,2.0,93,0.00,,,0.00,Wunderground v.1.15,2013-01-13 12:25:00,
2013-01-13 07:30:00,59.5,57.2,30.07,SE,142,1.0,1.0,92,0.00,,,0.00,Wunderground v.1.15,2013-01-13 12:30:00,
2013-01-13 07:35:00,59.6,57.3,30.08,SSW,192,1.0,3.0,92,0.00,,,0.00,Wunderground v.1.15,2013-01-13 12:35:00,
2013-01-13 07:40:00,60.0,57.4,30.08,SSW,205,1.0,1.0,91,0.00,,,0.00,Wunderground v.1.15,2013-01-13 12:40:00,
2013-01-13 07:45:00,60.2,57.6,30.08,SSE,158,1.0,5.0,91,0.00,,,0.00,Wunderground v.1.15,2013-01-13 12:45:00,
2013-01-13 07:50:00,60.3,57.4,30.08,SE,128,1.0,1.0,90,0.00,,,0.00,Wunderground v.1.15,2013-01-13 12:50:00,
2013-01-13 07:55:00,60.4,57.5,30.09,South,175,1.0,2.0,90,0.00,,,0.00,Wunderground v.1.15,2013-01-13 12:55:00,
2013-01-13 08:00:00,60.4,57.5,30.09,WSW,238,1.0,1.0,90,0.00,,,0.00,Wunderground v.1.15,2013-01-13 13:00:00,
2013-01-13 08:05:00,60.4,57.5,30.10,WSW,252,1.0,1.0,90,0.00,,,0.00,Wunderground v.1.15,2013-01-13 13:05:00,
2013-01-13 08:15:00,60.3,57.4,30.10,SW,229,0.0,1.0,90,0.00,,,0.00,Wunderground v.1.15,2013-01-13 13:15:00,
2013-01-13 08:20:00,60.2,56.9,30.11,SW,228,0.0,0.0,89,0.00,,,0.00,Wunderground v.1.15,2013-01-13 13:20:00,
2013-01-13 08:25:00,60.2,57.3,30.11,SSE,154,1.0,1.0,90,0.00,,,0.00,Wunderground v.1.15,2013-01-13 13:25:00,
2013-01-13 08:35:00,60.5,57.2,30.11,SSE,150,1.0,1.0,89,0.00,,,0.00,Wunderground v.1.15,2013-01-13 13:35:00,
2013-01-13 08:40:00,60.9,57.3,30.12,WSW,248,1.0,1.0,88,0.00,,,0.00,Wunderground v.1.15,2013-01-13 13:40:00,
2013-01-13 08:45:00,61.1,57.5,30.12,SSW,198,1.0,1.0,88,0.00,,,0.00,Wunderground v.1.15,2013-01-13 13:45:00,
2013-01-13 08:50:00,61.2,57.9,30.12,South,176,0.0,2.0,89,0.00,,,0.00,Wunderground v.1.15,2013-01-13 13:50:00,
2013-01-13 08:55:00,61.3,57.7,30.12,SW,218,0.0,2.0,88,0.00,,,0.00,Wunderground v.1.15,2013-01-13 13:55:00,
2013-01-13 09:00:00,61.5,57.3,30.12,SSW,207,1.0,1.0,86,0.00,,,0.00,Wunderground v.1.15,2013-01-13 14:00:00,
2013-01-13 09:05:00,61.8,57.6,30.12,East,91,1.0,4.0,86,0.00,,,0.00,Wunderground v.1.15,2013-01-13 14:05:00,
2013-01-13 09:10:00,62.1,57.5,30.12,East,96,1.0,1.0,85,0.00,,,0.00,Wunderground v.1.15,2013-01-13 14:10:00,
2013-01-13 09:15:00,62.2,57.6,30.12,South,190,1.0,1.0,85,0.00,,,0.00,Wunderground v.1.15,2013-01-13 14:15:00,
2013-01-13 09:20:00,62.4,57.8,30.12,WSW,244,1.0,1.0,85,0.00,,,0.00,Wunderground v.1.15,2013-01-13 14:20:00,
2013-01-13 09:25:00,62.6,57.7,30.12,WSW,244,0.0,1.0,84,0.00,,,0.00,Wunderground v.1.15,2013-01-13 14:25:00,
2013-01-13 09:30:00,62.7,57.5,30.12,ESE,117,0.0,0.0,83,0.00,,,0.00,Wunderground v.1.15,2013-01-13 14:30:00,
2013-01-13 09:35:00,62.7,57.1,30.12,SSE,168,2.0,2.0,82,0.00,,,0.00,Wunderground v.1.15,2013-01-13 14:35:00,
2013-01-13 09:40:00,62.9,57.3,30.12,SE,136,2.0,2.0,82,0.00,,,0.00,Wunderground v.1.15,2013-01-13 14:40:00,
2013-01-13 09:45:00,63.0,57.4,30.12,NE,56,1.0,3.0,82,0.00,,,0.00,Wunderground v.1.15,2013-01-13 14:45:00,
2013-01-13 09:50:00,63.1,57.5,30.11,South,180,2.0,2.0,82,0.00,,,0.00,Wunderground v.1.15,2013-01-13 14:50:00,
2013-01-13 09:55:00,63.1,57.2,30.11,South,191,2.0,2.0,81,0.00,,,0.00,Wunderground v.1.15,2013-01-13 14:55:00,
2013-01-13 10:00:00,63.2,57.3,30.11,ESE,120,2.0,2.0,81,0.00,,,0.00,Wunderground v.1.15,2013-01-13 15:00:00,
2013-01-13 10:05:00,63.3,56.7,30.11,East,99,2.0,2.0,79,0.00,,,0.00,Wunderground v.1.15,2013-01-13 15:05:00,
2013-01-13 10:10:00,63.7,56.7,30.11,SE,127,2.0,2.0,78,0.00,,,0.00,Wunderground v.1.15,2013-01-13 15:10:00,
2013-01-13 10:15:00,64.0,57.0,30.11,SE,132,2.0,2.0,78,0.00,,,0.00,Wunderground v.1.15,2013-01-13 15:15:00,
2013-01-13 10:20:00,64.3,57.3,30.11,NE,47,2.0,2.0,78,0.00,,,0.00,Wunderground v.1.15,2013-01-13 15:20:00,
2013-01-13 10:25:00,64.4,57.0,30.11,SW,224,1.0,2.0,77,0.00,,,0.00,Wunderground v.1.15,2013-01-13 15:25:00,
2013-01-13 10:30:00,64.5,57.1,30.11,ESE,109,1.0,1.0,77,0.00,,,0.00,Wunderground v.1.15,2013-01-13 15:30:00,
2013-01-13 10:40:00,64.6,57.2,30.11,SE,143,1.0,1.0,77,0.00,,,0.00,Wunderground v.1.15,2013-01-13 15:40:00,
2013-01-13 10:45:00,64.7,57.0,30.11,East,83,1.0,4.0,76,0.00,,,0.00,Wunderground v.1.15,2013-01-13 15:45:00,
2013-01-13 10:50:00,64.5,56.8,30.11,South,177,2.0,2.0,76,0.00,,,0.00,Wunderground v.1.15,2013-01-13 15:50:00,
2013-01-13 10:55:00,64.3,57.3,30.11,East,97,2.0,2.0,78,0.00,,,0.00,Wunderground v.1.15,2013-01-13 15:55:00,
2013-01-13 11:00:00,64.2,56.8,30.10,SSE,151,2.0,2.0,77,0.00,,,0.00,Wunderground v.1.15,2013-01-13 16:00:00,
2013-01-13 11:05:00,64.4,57.0,30.10,SSE,163,1.0,2.0,77,0.00,,,0.00,Wunderground v.1.15,2013-01-13 16:05:00,
2013-01-13 11:10:00,64.8,58.1,30.10,South,182,1.0,3.0,79,0.00,,,0.00,Wunderground v.1.15,2013-01-13 16:10:00,
2013-01-13 11:15:00,65.1,58.4,30.10,SSE,167,1.0,3.0,79,0.00,,,0.00,Wunderground v.1.15,2013-01-13 16:15:00,
2013-01-13 11:20:00,65.2,58.5,30.10,SSE,167,1.0,1.0,79,0.00,,,0.00,Wunderground v.1.15,2013-01-13 16:20:00,
2013-01-13 11:25:00,65.2,58.2,30.10,ESE,111,1.0,1.0,78,0.00,,,0.00,Wunderground v.1.15,2013-01-13 16:25:00,
2013-01-13 11:30:00,65.1,58.4,30.10,ESE,111,0.0,0.0,79,0.00,,,0.00,Wunderground v.1.15,2013-01-13 16:30:00,
2013-01-13 11:35:00,64.9,58.2,30.10,SSE,161,1.0,2.0,79,0.00,,,0.00,Wunderground v.1.15,2013-01-13 16:35:00,
2013-01-13 11:40:00,64.8,58.5,30.10,ESE,119,1.0,7.0,80,0.00,,,0.00,Wunderground v.1.15,2013-01-13 16:40:00,
2013-01-13 11:45:00,64.7,58.0,30.09,South,184,2.0,7.0,79,0.00,,,0.00,Wunderground v.1.15,2013-01-13 16:45:00,
2013-01-13 11:50:00,64.6,58.3,30.09,South,170,2.0,7.0,80,0.00,,,0.00,Wunderground v.1.15,2013-01-13 16:50:00,
2013-01-13 11:55:00,64.5,58.2,30.09,NNE,30,2.0,7.0,80,0.00,,,0.00,Wunderground v.1.15,2013-01-13 16:55:00,
2013-01-13 12:00:00,64.4,58.1,30.09,SE,146,2.0,2.0,80,0.00,,,0.00,Wunderground v.1.15,2013-01-13 17:00:00,
2013-01-13 12:05:00,64.3,58.0,30.09,NE,49,2.0,3.0,80,0.00,,,0.00,Wunderground v.1.15,2013-01-13 17:05:00,
2013-01-13 12:10:00,64.1,57.8,30.09,South,181,2.0,2.0,80,0.00,,,0.00,Wunderground v.1.15,2013-01-13 17:10:00,
2013-01-13 12:15:00,64.0,58.1,30.08,SE,138,2.0,2.0,81,0.00,,,0.00,Wunderground v.1.15,2013-01-13 17:15:00,
2013-01-13 12:20:00,63.9,58.3,30.08,SSE,166,1.0,2.0,82,0.00,,,0.00,Wunderground v.1.15,2013-01-13 17:20:00,
2013-01-13 12:25:00,63.8,58.2,30.08,SSE,166,1.0,2.0,82,0.00,,,0.00,Wunderground v.1.15,2013-01-13 17:25:00,
2013-01-13 12:30:00,63.8,58.2,30.08,SW,227,1.0,1.0,82,0.00,,,0.00,Wunderground v.1.15,2013-01-13 17:30:00,
2013-01-13 12:35:00,63.8,58.2,30.07,SW,227,0.0,1.0,82,0.00,,,0.00,Wunderground v.1.15,2013-01-13 17:35:00,
2013-01-13 12:40:00,63.8,58.2,30.07,NNE,19,0.0,0.0,82,0.00,,,0.00,Wunderground v.1.15,2013-01-13 17:40:00,
2013-01-13 12:45:00,63.8,58.2,30.06,SSE,160,1.0,1.0,82,0.00,,,0.00,Wunderground v.1.15,2013-01-13 17:45:00,
2013-01-13 12:55:00,63.8,58.2,30.07,SSE,164,0.0,4.0,82,0.00,,,0.00,Wunderground v.1.15,2013-01-13 17:55:00,
2013-01-13 13:00:00,63.7,58.1,30.07,SSE,164,0.0,0.0,82,0.00,,,0.00,Wunderground v.1.15,2013-01-13 18:00:00,
2013-01-13 13:05:00,63.7,58.1,30.06,SSE,157,1.0,1.0,82,0.00,,,0.00,Wunderground v.1.15,2013-01-13 18:05:00,
2013-01-13 13:10:00,63.8,58.5,30.07,SSE,157,1.0,1.0,83,0.00,,,0.00,Wunderground v.1.15,2013-01-13 18:10:00,
2013-01-13 13:15:00,63.8,58.5,30.06,SSE,157,0.0,1.0,83,0.00,,,0.00,Wunderground v.1.15,2013-01-13 18:15:00,
2013-01-13 13:19:00,63.8,58.5,30.06,SSE,157,1.0,1.0,83,0.00,,,0.00,Wunderground v.1.15,2013-01-13 18:19:00,
2013-01-13 13:25:00,63.8,58.5,30.06,SE,138,1.0,1.0,83,0.00,,,0.00,Wunderground v.1.15,2013-01-13 18:25:00,
2013-01-13 13:30:00,63.8,58.5,30.06,SE,138,1.0,1.0,83,0.00,,,0.00,Wunderground v.1.15,2013-01-13 18:30:00,
2013-01-13 13:40:00,63.9,59.0,30.05,SE,134,0.0,0.0,84,0.00,,,0.00,Wunderground v.1.15,2013-01-13 18:40:00,
2013-01-13 13:45:00,63.9,59.0,30.05,SSE,148,0.0,0.0,84,0.00,,,0.00,Wunderground v.1.15,2013-01-13 18:45:00,
2013-01-13 13:55:00,63.7,58.8,30.05,SE,142,0.0,1.0,84,0.00,,,0.00,Wunderground v.1.15,2013-01-13 18:55:00,
2013-01-13 14:00:00,63.7,58.8,30.05,SSE,159,0.0,4.0,84,0.00,,,0.00,Wunderground v.1.15,2013-01-13 19:00:00,
2013-01-13 14:05:00,63.7,58.8,30.05,SSE,161,1.0,4.0,84,0.00,,,0.00,Wunderground v.1.15,2013-01-13 19:05:00,
2013-01-13 14:10:00,63.7,58.8,30.05,SSE,161,1.0,1.0,84,0.00,,,0.00,Wunderground v.1.15,2013-01-13 19:10:00,
2013-01-13 14:15:00,63.7,58.8,30.05,SSE,161,0.0,1.0,84,0.00,,,0.00,Wunderground v.1.15,2013-01-13 19:15:00,
2013-01-13 14:20:00,63.7,58.8,30.05,SSE,161,0.0,0.0,84,0.00,,,0.00,Wunderground v.1.15,2013-01-13 19:20:00,
2013-01-13 14:25:00,63.7,58.4,30.06,SSW,196,1.0,4.0,83,0.00,,,0.00,Wunderground v.1.15,2013-01-13 19:25:00,
2013-01-13 14:30:00,63.8,58.5,30.06,ENE,76,1.0,1.0,83,0.00,,,0.00,Wunderground v.1.15,2013-01-13 19:30:00,
2013-01-13 14:35:00,63.8,58.5,30.06,SE,136,1.0,1.0,83,0.00,,,0.00,Wunderground v.1.15,2013-01-13 19:35:00,
2013-01-13 14:40:00,63.6,58.7,30.06,SE,136,1.0,1.0,84,0.00,,,0.00,Wunderground v.1.15,2013-01-13 19:40:00,
2013-01-13 14:45:00,63.5,58.6,30.06,SE,136,0.0,1.0,84,0.00,,,0.00,Wunderground v.1.15,2013-01-13 19:45:00,
2013-01-13 14:50:00,63.4,58.8,30.06,SE,136,0.0,0.0,85,0.00,,,0.00,Wunderground v.1.15,2013-01-13 19:50:00,
2013-01-13 14:55:00,63.3,59.0,30.07,SE,136,0.0,0.0,86,0.00,,,0.00,Wunderground v.1.15,2013-01-13 19:55:00,
2013-01-13 15:00:00,63.1,58.8,30.07,SE,136,0.0,0.0,86,0.00,,,0.00,Wunderground v.1.15,2013-01-13 20:00:00,
2013-01-13 15:05:00,62.9,59.0,30.07,SE,136,0.0,0.0,87,0.00,,,0.00,Wunderground v.1.15,2013-01-13 20:05:00,
2013-01-13 15:10:00,62.7,58.8,30.06,SE,136,0.0,0.0,87,0.00,,,0.00,Wunderground v.1.15,2013-01-13 20:10:00,
2013-01-13 15:15:00,62.5,58.9,30.07,SE,136,0.0,0.0,88,0.00,,,0.00,Wunderground v.1.15,2013-01-13 20:15:00,
2013-01-13 15:25:00,62.3,58.7,30.07,ESE,105,0.0,0.0,88,0.00,,,0.00,Wunderground v.1.15,2013-01-13 20:25:00,
2013-01-13 15:30:00,62.2,58.6,30.07,ESE,105,0.0,0.0,88,0.00,,,0.00,Wunderground v.1.15,2013-01-13 20:30:00,
2013-01-13 15:35:00,62.2,58.6,30.07,ESE,105,0.0,0.0,88,0.00,,,0.00,Wunderground v.1.15,2013-01-13 20:35:00,
2013-01-13 15:40:00,62.1,58.2,30.07,ESE,105,0.0,0.0,87,0.00,,,0.00,Wunderground v.1.15,2013-01-13 20:40:00,
2013-01-13 15:45:00,62.1,58.2,30.07,ESE,105,0.0,0.0,87,0.00,,,0.00,Wunderground v.1.15,2013-01-13 20:45:00,
2013-01-13 15:55:00,62.2,58.0,30.07,East,81,0.0,0.0,86,0.00,,,0.00,Wunderground v.1.15,2013-01-13 20:55:00,
2013-01-13 16:00:00,62.2,58.3,30.07,East,81,0.0,0.0,87,0.00,,,0.00,Wunderground v.1.15,2013-01-13 21:00:00,
2013-01-13 16:05:00,62.2,58.0,30.08,East,81,0.0,0.0,86,0.00,,,0.00,Wunderground v.1.15,2013-01-13 21:05:00,
2013-01-13 16:15:00,62.1,57.5,30.08,East,81,0.0,0.0,85,0.00,,,0.00,Wunderground v.1.15,2013-01-13 21:15:00,
2013-01-13 16:20:00,62.2,58.0,30.08,SSE,150,0.0,0.0,86,0.00,,,0.00,Wunderground v.1.15,2013-01-13 21:20:00,
2013-01-13 16:25:00,62.2,58.0,30.08,SSE,150,0.0,0.0,86,0.00,,,0.00,Wunderground v.1.15,2013-01-13 21:25:00,
2013-01-13 16:30:00,62.2,57.6,30.08,SSE,150,0.0,0.0,85,0.00,,,0.00,Wunderground v.1.15,2013-01-13 21:30:00,
2013-01-13 16:35:00,62.1,57.5,30.08,SSE,150,0.0,0.0,85,0.00,,,0.00,Wunderground v.1.15,2013-01-13 21:35:00,
2013-01-13 16:40:00,62.1,57.5,30.08,SSE,150,0.0,0.0,85,0.00,,,0.00,Wunderground v.1.15,2013-01-13 21:40:00,
2013-01-13 16:45:00,62.1,57.5,30.08,ESE,116,0.0,0.0,85,0.00,,,0.00,Wunderground v.1.15,2013-01-13 21:45:00,
2013-01-13 16:55:00,62.0,57.4,30.09,ESE,115,0.0,1.0,85,0.00,,,0.00,Wunderground v.1.15,2013-01-13 21:55:00,
2013-01-13 17:00:00,61.9,57.3,30.08,ESE,115,0.0,0.0,85,0.00,,,0.00,Wunderground v.1.15,2013-01-13 22:00:00,
2013-01-13 17:05:00,61.8,57.6,30.08,ESE,115,0.0,0.0,86,0.00,,,0.00,Wunderground v.1.15,2013-01-13 22:05:00,
2013-01-13 17:10:00,61.6,57.4,30.08,ESE,115,0.0,0.0,86,0.00,,,0.00,Wunderground v.1.15,2013-01-13 22:10:00,
2013-01-13 17:15:00,61.4,57.2,30.08,ESE,115,0.0,0.0,86,0.00,,,0.00,Wunderground v.1.15,2013-01-13 22:15:00,
2013-01-13 17:20:00,61.3,57.4,30.08,ESE,115,0.0,0.0,87,0.00,,,0.00,Wunderground v.1.15,2013-01-13 22:20:00,
2013-01-13 17:25:00,61.1,57.2,30.08,ESE,115,0.0,0.0,87,0.00,,,0.00,Wunderground v.1.15,2013-01-13 22:25:00,
2013-01-13 17:30:00,60.9,57.0,30.08,ESE,115,0.0,0.0,87,0.00,,,0.00,Wunderground v.1.15,2013-01-13 22:30:00,
2013-01-13 17:35:00,60.7,57.1,30.08,ESE,115,0.0,0.0,88,0.00,,,0.00,Wunderground v.1.15,2013-01-13 22:35:00,
2013-01-13 17:40:00,60.5,56.9,30.08,ESE,115,0.0,0.0,88,0.00,,,0.00,Wunderground v.1.15,2013-01-13 22:40:00,
2013-01-13 17:45:00,60.2,56.9,30.08,ESE,115,0.0,0.0,89,0.00,,,0.00,Wunderground v.1.15,2013-01-13 22:45:00,
2013-01-13 17:50:00,59.9,57.0,30.08,ESE,115,0.0,0.0,90,0.00,,,0.00,Wunderground v.1.15,2013-01-13 22:50:00,
2013-01-13 17:55:00,59.7,57.1,30.08,ESE,115,0.0,0.0,91,0.00,,,0.00,Wunderground v.1.15,2013-01-13 22:55:00,
2013-01-13 18:00:00,59.6,57.3,30.08,ESE,115,0.0,0.0,92,0.00,,,0.00,Wunderground v.1.15,2013-01-13 23:00:00,
2013-01-13 18:05:00,59.5,57.2,30.08,ESE,115,0.0,0.0,92,0.00,,,0.00,Wunderground v.1.15,2013-01-13 23:05:00,
2013-01-13 18:15:00,59.6,57.3,30.08,ESE,115,0.0,0.0,92,0.00,,,0.00,Wunderground v.1.15,2013-01-13 23:15:00,
2013-01-13 18:20:00,59.5,57.2,30.08,ESE,115,0.0,0.0,92,0.00,,,0.00,Wunderground v.1.15,2013-01-13 23:20:00,
2013-01-13 18:25:00,59.3,57.0,30.08,ESE,115,0.0,0.0,92,0.00,,,0.00,Wunderground v.1.15,2013-01-13 23:25:00,
2013-01-13 18:30:00,59.3,57.3,30.08,East,81,0.0,0.0,93,0.00,,,0.00,Wunderground v.1.15,2013-01-13 23:30:00,
2013-01-13 18:35:00,59.3,57.6,30.08,East,81,0.0,0.0,94,0.00,,,0.00,Wunderground v.1.15,2013-01-13 23:35:00,
2013-01-13 18:40:00,59.2,57.5,30.08,East,81,0.0,0.0,94,0.00,,,0.00,Wunderground v.1.15,2013-01-13 23:40:00,
2013-01-13 18:45:00,59.3,57.6,30.08,East,81,0.0,0.0,94,0.00,,,0.00,Wunderground v.1.15,2013-01-13 23:45:00,
2013-01-13 18:50:00,59.2,57.5,30.08,East,81,0.0,0.0,94,0.00,,,0.00,Wunderground v.1.15,2013-01-13 23:50:00,
2013-01-13 18:55:00,59.2,57.5,30.08,East,81,0.0,0.0,94,0.00,,,0.00,Wunderground v.1.15,2013-01-13 23:55:00,
2013-01-13 19:00:00,59.3,57.6,30.08,East,81,0.0,0.0,94,0.00,,,0.00,Wunderground v.1.15,2013-01-14 00:00:00,
2013-01-13 19:05:00,59.4,57.7,30.08,East,81,0.0,0.0,94,0.00,,,0.00,Wunderground v.1.15,2013-01-14 00:05:00,
2013-01-13 19:10:00,59.4,57.7,30.08,East,81,0.0,0.0,94,0.00,,,0.00,Wunderground v.1.15,2013-01-14 00:10:00,
2013-01-13 19:15:00,59.5,57.8,30.08,East,81,0.0,0.0,94,0.00,,,0.00,Wunderground v.1.15,2013-01-14 00:15:00,
2013-01-13 19:20:00,59.5,57.8,30.08,East,81,0.0,0.0,94,0.00,,,0.00,Wunderground v.1.15,2013-01-14 00:20:00,
2013-01-13 19:25:00,59.6,57.9,30.08,East,81,0.0,0.0,94,0.00,,,0.00,Wunderground v.1.15,2013-01-14 00:25:00,
2013-01-13 19:30:00,59.6,57.9,30.08,East,81,0.0,0.0,94,0.00,,,0.00,Wunderground v.1.15,2013-01-14 00:30:00,
2013-01-13 19:35:00,59.7,58.3,30.07,East,81,0.0,0.0,95,0.00,,,0.00,Wunderground v.1.15,2013-01-14 00:35:00,
2013-01-13 19:40:00,60.0,58.3,30.06,SSE,161,1.0,1.0,94,0.00,,,0.00,Wunderground v.1.15,2013-01-14 00:40:00,
2013-01-13 19:45:00,60.2,58.5,30.07,SSE,161,1.0,1.0,94,0.00,,,0.00,Wunderground v.1.15,2013-01-14 00:45:00,
2013-01-13 19:50:00,60.3,58.3,30.06,SSE,161,0.0,0.0,93,0.00,,,0.00,Wunderground v.1.15,2013-01-14 00:50:00,
2013-01-13 19:55:00,60.2,58.2,30.06,SSE,161,0.0,0.0,93,0.00,,,0.00,Wunderground v.1.15,2013-01-14 00:55:00,
2013-01-13 20:00:00,60.3,58.3,30.06,SSE,161,0.0,0.0,93,0.00,,,0.00,Wunderground v.1.15,2013-01-14 01:00:00,
2013-01-13 20:05:00,60.1,58.1,30.06,SSE,161,0.0,0.0,93,0.00,,,0.00,Wunderground v.1.15,2013-01-14 01:05:00,
2013-01-13 20:10:00,60.0,58.0,30.06,SSE,161,0.0,0.0,93,0.00,,,0.00,Wunderground v.1.15,2013-01-14 01:10:00,
2013-01-13 20:15:00,60.0,58.0,30.07,SSE,161,0.0,0.0,93,0.00,,,0.00,Wunderground v.1.15,2013-01-14 01:15:00,
2013-01-13 20:20:00,60.1,58.1,30.07,SSE,161,0.0,0.0,93,0.00,,,0.00,Wunderground v.1.15,2013-01-14 01:20:00,
2013-01-13 20:25:00,60.2,58.2,30.07,SSE,161,0.0,0.0,93,0.00,,,0.00,Wunderground v.1.15,2013-01-14 01:25:00,
2013-01-13 20:30:00,60.3,58.3,30.08,SSE,161,0.0,0.0,93,0.00,,,0.00,Wunderground v.1.15,2013-01-14 01:30:00,
2013-01-13 20:35:00,60.4,58.4,30.08,SSE,161,0.0,0.0,93,0.00,,,0.00,Wunderground v.1.15,2013-01-14 01:35:00,
2013-01-13 20:40:00,60.3,58.3,30.08,SSE,161,0.0,0.0,93,0.00,,,0.00,Wunderground v.1.15,2013-01-14 01:40:00,
2013-01-13 20:50:00,60.3,58.3,30.07,SSE,161,0.0,0.0,93,0.00,,,0.00,Wunderground v.1.15,2013-01-14 01:50:00,
2013-01-13 20:55:00,60.5,58.8,30.07,SSE,161,0.0,0.0,94,0.00,,,0.00,Wunderground v.1.15,2013-01-14 01:55:00,
2013-01-13 21:00:00,60.5,58.8,30.06,SSE,161,0.0,1.0,94,0.00,,,0.00,Wunderground v.1.15,2013-01-14 02:00:00,
2013-01-13 21:05:00,60.4,58.7,30.06,SSE,161,0.0,1.0,94,0.00,,,0.00,Wunderground v.1.15,2013-01-14 02:05:00,
2013-01-13 21:10:00,60.2,58.8,30.06,SSE,161,0.0,0.0,95,0.00,,,0.00,Wunderground v.1.15,2013-01-14 02:10:00,
2013-01-13 21:15:00,60.1,58.7,30.06,SSE,161,0.0,0.0,95,0.00,,,0.00,Wunderground v.1.15,2013-01-14 02:15:00,
2013-01-13 21:25:00,59.8,58.7,30.07,SSE,161,0.0,0.0,96,0.00,,,0.00,Wunderground v.1.15,2013-01-14 02:25:00,
2013-01-13 21:30:00,59.7,58.6,30.06,SSE,161,0.0,0.0,96,0.00,,,0.01,Wunderground v.1.15,2013-01-14 02:30:00,
2013-01-13 21:35:00,59.6,58.5,30.07,SSE,161,0.0,0.0,96,0.00,,,0.01,Wunderground v.1.15,2013-01-14 02:35:00,
2013-01-13 21:40:00,59.4,58.3,30.07,SSE,161,0.0,0.0,96,0.00,,,0.01,Wunderground v.1.15,2013-01-14 02:40:00,
2013-01-13 21:45:00,59.4,58.5,30.07,SSE,161,0.0,0.0,97,0.00,,,0.02,Wunderground v.1.15,2013-01-14 02:45:00,
2013-01-13 21:50:00,59.5,58.6,30.07,SSE,161,0.0,0.0,97,0.00,,,0.02,Wunderground v.1.15,2013-01-14 02:50:00,
2013-01-13 21:55:00,59.6,58.7,30.07,SSE,161,0.0,1.0,97,0.00,,,0.02,Wunderground v.1.15,2013-01-14 02:55:00,
2013-01-13 22:00:00,59.6,58.7,30.07,SSE,161,0.0,0.0,97,0.00,,,0.02,Wunderground v.1.15,2013-01-14 03:00:00,
2013-01-13 22:05:00,59.7,58.6,30.07,SSE,165,0.0,0.0,96,0.00,,,0.02,Wunderground v.1.15,2013-01-14 03:05:00,
2013-01-13 22:10:00,59.6,58.5,30.07,SSE,165,0.0,0.0,96,0.00,,,0.02,Wunderground v.1.15,2013-01-14 03:10:00,
2013-01-13 22:15:00,59.6,58.5,30.07,SSE,165,0.0,0.0,96,0.00,,,0.02,Wunderground v.1.15,2013-01-14 03:15:00,
2013-01-13 22:20:00,59.5,58.6,30.07,SSE,165,0.0,0.0,97,0.00,,,0.03,Wunderground v.1.15,2013-01-14 03:20:00,
2013-01-13 22:25:00,59.5,58.6,30.08,SSE,165,0.0,2.0,97,0.00,,,0.03,Wunderground v.1.15,2013-01-14 03:25:00,
2013-01-13 22:30:00,59.5,58.6,30.07,SSE,165,0.0,1.0,97,0.00,,,0.03,Wunderground v.1.15,2013-01-14 03:30:00,
2013-01-13 22:35:00,59.5,58.6,30.07,SSE,165,0.0,1.0,97,0.00,,,0.03,Wunderground v.1.15,2013-01-14 03:35:00,
2013-01-13 22:40:00,59.6,58.7,30.07,SSE,165,0.0,1.0,97,0.00,,,0.03,Wunderground v.1.15,2013-01-14 03:40:00,
2013-01-13 22:50:00,59.6,58.7,30.07,SSE,165,0.0,0.0,97,0.00,,,0.04,Wunderground v.1.15,2013-01-14 03:50:00,
2013-01-13 22:55:00,59.6,58.7,30.07,SSE,165,0.0,0.0,97,0.00,,,0.04,Wunderground v.1.15,2013-01-14 03:55:00,
2013-01-13 23:00:00,59.6,58.7,30.07,SSE,165,0.0,0.0,97,0.00,,,0.04,Wunderground v.1.15,2013-01-14 04:00:00,
2013-01-13 23:05:00,59.6,58.7,30.06,SSE,165,0.0,0.0,97,0.00,,,0.04,Wunderground v.1.15,2013-01-14 04:05:00,
2013-01-13 23:10:00,59.7,58.8,30.06,South,175,1.0,1.0,97,0.00,,,0.04,Wunderground v.1.15,2013-01-14 04:10:00,
2013-01-13 23:15:00,59.9,59.0,30.06,South,183,1.0,1.0,97,0.00,,,0.04,Wunderground v.1.15,2013-01-14 04:15:00,
2013-01-13 23:19:00,59.9,59.0,30.06,SSE,162,1.0,1.0,97,0.00,,,0.04,Wunderground v.1.15,2013-01-14 04:19:00,
2013-01-13 23:25:00,60.0,58.9,30.06,SSE,165,1.0,1.0,96,0.00,,,0.04,Wunderground v.1.15,2013-01-14 04:25:00,
2013-01-13 23:30:00,60.1,59.0,30.06,SSE,165,1.0,1.0,96,0.00,,,0.04,Wunderground v.1.15,2013-01-14 04:30:00,
2013-01-13 23:35:00,60.1,59.0,30.06,SE,139,1.0,1.0,96,0.00,,,0.04,Wunderground v.1.15,2013-01-14 04:35:00,
2013-01-13 23:40:00,60.0,58.9,30.06,SSW,196,1.0,1.0,96,0.00,,,0.04,Wunderground v.1.15,2013-01-14 04:40:00,
2013-01-13 23:45:00,60.0,59.1,30.06,ENE,77,1.0,1.0,97,0.00,,,0.05,Wunderground v.1.15,2013-01-14 04:45:00,
2013-01-13 23:55:00,59.9,59.0,30.07,SSE,160,0.0,0.0,97,0.10,,,0.06,Wunderground v.1.15,2013-01-14 04:55:00,